Simultaneous Nadir Overpasses (SNOs) Predictions

Prediction of SNOs between LANDSAT-8 and METOP-B Satellite Orbit:

Table of predicted SNOs for the next 14.0 days since TLE Epoch: 4/20/2024
Index Date (LANDSAT-8) Time (LANDSAT-8) Lat,Lon (LANDSAT-8) SZA (LANDSAT-8 ) Date (METOP-B) Time (METOP-B) Lat,Lon (METOP-B) SZA (METOP-B ) Distance(km) Time Diff (sec)
1 04/20/2024 08:51:06 -81.32, -90.25 108.07 04/20/2024 08:50:40 -81.32, -90.07 108.06 3.04 26
2 04/20/2024 09:40:32 81.33, 77.51 71.94 04/20/2024 09:41:20 81.33, 77.64 71.98 2.32 48
3 04/23/2024 04:25:21 -81.31, -23.98 109.02 04/23/2024 04:25:00 -81.31, -24.14 109.05 2.72 21
4 04/23/2024 05:14:46 81.34, 144.13 71.04 04/23/2024 05:15:39 81.33, 143.94 71.04 3.33 53
5 04/25/2024 23:59:35 -81.32, 42.55 109.91 04/25/2024 23:59:19 -81.31, 42.38 109.93 2.83 16
6 04/26/2024 00:49:00 81.34,-149.37 70.15 04/26/2024 00:49:57 81.34,-149.17 70.19 3.31 57
7 04/28/2024 19:33:48 -81.31, 108.95 110.79 04/28/2024 19:33:37 -81.32, 109.10 110.77 2.65 11
8 04/28/2024 20:23:13 81.34, -83.00 69.26 04/28/2024 20:24:16 81.34, -82.88 69.31 2.10 63
9 05/01/2024 15:07:58 -81.32, 175.60 111.60 05/01/2024 15:07:54 -81.32, 175.62 111.60 0.37 4



Historial Predications of SNOs between LANDSAT-8 and METOP-B
